星链-37504(STARLINK-37504)

导读

STARLINK-37504(NORAD编号68913)是美国SpaceX公司星链(Starlink)星座的低轨通信卫星,属于星链星座扩容任务中发射的组网卫星。该卫星运行在近地轨道,主要为全球提供高速互联网接入服务,重点覆盖偏远地区及地面网络难以覆盖的区域。 依托星链星座低轨布局优势,该卫星可提供低延迟的宽带通信服务,支持个人用户接入、移动场景网络服务等应用。作为星链庞大星座的组成单元,它承担着补充星座覆盖、提升系统容量的作用,延续了星链卫星标准化设计、批量发射组网的特点,助力SpaceX实现全球卫星互联网组网目标。

Basic Information
目录编号:
68913
目录名称:
STARLINK-37504
国际标识:
2026-097U
轨道中心:
EARTH
卫星名称:
星链-37504
卫星全名:
星链-37504(STARLINK-37504)
卫星状态:
在轨 (已飞行128 天)
发射日期:
2026-04-30 UTC
国别 :
美国 (US)
星等 :
--
Orbit Information
数据来源 国际轨道数据 AOE轨道数据
星历时间 2026-09-05T07:34:11+0800
10小时前
查看轨道信息
2026-08-31T02:00:00+0800
5天前
查看轨道信息
半长轴 6843.709km 6843.744km
偏心率 0.0001729 0.000164
轨道倾角 97.286° 97.287°
近地点辐角 96.059° 85.841°
升交点赤经 82.344° 77.184°
平近点角 264.084° 210.037°
近地点 464.388km 464.484km
远地点 466.756km 466.73km
周期 93.907分钟 93.908分钟
每日圈数 15.334355 15.334238
Detailed Information
固有亮度:
5
最大亮度:
2.5
卫星平台:
Starlink V1.0
覆盖范围:
全球
运营商:
太空探索技术公司
运营商所在国:
美国
制造商(研发单位):
太空探索技术公司
制造商所在国:
美国
使用方式:
暂无
Satellite Introduction
Starlink 计划是 SpaceX 推出的全球卫星互联网项目,通过发射低轨道卫星,为全球尤其是偏远地区提供高速、低延迟的互联网服务。自 2019 年起,Starlink 已部署数千颗卫星,旨在缩小全球数字鸿沟,推动互联网普及。该项目还为军事、航空等行业提供通信支持,带来广泛经济效益。
2D Orbit Map
3D Orbit Map
Orbit Altitude Analysis Chart
Orbit Inclination Analysis Chart
Orbit Comprehensive Analysis Chart
View Comprehensive Chart
Conjunction Data List
Event ID Objects TCA Miss Dist (km) Collision Risk Probability Collision Risk Index (CRI) Action
CDM_260906-185506-404606-891321
2026-09-06T
18:55:24+0000
0.676 km
远距离
6.740022E-5 中风险 0.72
CDM_260906-105506-891306-978821
2026-09-06T
10:55:21+0000
1.653 km
极远距离
4.857896E-6 低风险 0.49
CDM_260905-141704-944506-891322
2026-09-05T
14:17:17+0000
2.673 km
极远距离
1.04234E-6 低风险 0.35
CDM_260903-112206-540506-891321
2026-09-03T
11:22:24+0000
2.766 km
极远距离
1.023914E-6 低风险 0.35